Presure
151 157 152 160 165 160 165 169 173 175 158 181 169 162 177 170 170 167 172 169 173 178 178 190 184 183 180
190 152 162 181 153 155 167 167 171 176 193 174 176 181 177 191 172 176 194 180 171 179 174 182 176 197 184
160 167 177 178 169 170 158 159 162 155 170 177 178 172 176 178 187 181 176 190 180 188 187 200 177 194 177
168 165 152 164 164 131 174 172 182 175 174 171 168 165 170 166 185 177 180 143 155 182 172 180 170 190 168
149 169 145 169 164 160 147 152 164 173 179 161 183 175 177 179 167 182 163 156 170 174 181 179 181 189 187
181 180 177 170 171 170 172 135 181 178 180 172 174 151 169 139 180 179 182 187 180 173 182 162 166 149 179
197 184 184 177 191 164 173 182 192 184 153 181 172 174 173 175 177 168 171 176 179 160 188 187 179 186 180
202 209 202 203 192 174 178 170 166 176 185 160 190 187 194 192 192 183 186 185 184 181 174 170 142 186 187
195 173 177 204 205 203 203 203 204 206 205 209 203 206 210 208 216 211 222 191 191 189 174 173 164 219 242
191 199 196 180 172 187 196 201 189 189 195 211 213 216 218 218 213 219 218 221 224 223 237 218 216 206 204
217 201 198 202 205 201 190 184 206 205 203 205 205 209 183 208 213 229 225 207 211 204 200 243 240 206 194
214 215 215 211 208 213 205 205 209 207 207 206 207 203 210 217 213 209 235 244 238 231 224 210 217 226 220
220 212 211 216 211 214 210 205 218 216 205 194 197 195 200 207 210 205 202 209 223 224 207 218 219 215 215
224 220 217 210 212 215 209 211 214 204 210 207 205 209 216 216 217 212 223 219 209 217 216 215 218 216 222
239 223 221 225 221 216 212 208 213 210 212 215 210 220 224 188 214 219 221 218 212 217 208 210 236 219 217
243 239 232 244 225 218 220 222 218 215 218 216 214 213 214 215 216 210 212 212 216 210 206 213 217 223 228
276 251 251 242 227 237 232 229 225 223 227 225 221 227 229 225 216 217 215 223 223 214 223 224 221 221 218
Wind_Speed
100 107 95 103 112 102 109 114 113 116 95 125 100 92 105 92 92 92 90 88 91 94 92 114 107 107 98
132 105 121 137 99 99 119 115 120 126 126 121 112 118 116 126 99 106 122 113 99 112 99 115 100 126 115
119 131 137 142 130 129 107 107 110 105 123 135 131 115 123 124 130 127 117 132 119 128 128 138 101 132 91
139 134 115 133 125 80 137 134 146 139 133 124 117 111 120 113 133 119 135 76 84 130 110 124 103 135 99
103 145 102 150 129 114 95 94 121 138 146 110 144 140 143 145 125 144 106 93 118 122 134 129 129 141 141
160 162 162 152 155 148 151 80 158 151 152 136 144 107 131 78 147 145 145 149 140 129 143 100 109 79 126
165 168 159 162 154 128 146 169 169 164 117 155 130 136 142 147 150 131 139 144 143 106 155 149 132 144 132
150 148 157 153 171 156 160 138 130 147 155 105 168 163 165 163 163 151 158 155 152 146 134 122 84 149 157
154 143 148 153 156 160 161 161 158 159 163 157 168 168 164 166 157 162 153 164 163 156 128 130 122 141 126
157 158 160 155 144 159 165 163 162 159 166 159 160 159 157 157 158 153 156 151 150 148 144 144 147 144 139
161 163 162 164 165 166 160 156 159 166 167 166 166 166 142 162 161 157 157 153 153 150 144 142 141 144 142
164 163 166 168 168 167 168 168 170 169 168 167 165 163 164 163 160 157 157 152 151 150 147 141 146 145 146
168 168 166 166 167 168 169 169 170 171 169 161 161 156 158 165 163 158 154 158 161 161 147 155 153 150 150
170 170 171 167 168 171 168 169 170 166 170 170 170 171 174 174 173 168 170 168 160 164 161 157 159 156 163
174 173 171 175 175 173 170 167 172 170 173 177 172 179 179 138 173 173 176 171 164 172 154 153 172 147 151
174 176 177 177 177 171 175 178 175 174 179 180 177 173 175 174 176 167 168 169 174 154 155 169 170 174 174
154 172 176 179 173 182 183 185 181 179 184 184 181 187 191 187 178 181 176 184 185 172 182 182 175 174 169
Wind_Direction
260 258 261 261 259 260 260 262 265 266 267 269 268 268 270 267 269 270 271 270 276 282 279 287 285 285 282
245 263 258 253 263 263 261 263 264 265 265 267 269 271 274 274 276 277 278 281 278 280 282 285 282 286 286
261 258 254 255 260 261 263 267 268 263 268 268 269 274 275 276 275 280 280 281 283 283 284 285 283 290 284
253 256 261 262 265 251 262 263 260 263 266 269 273 277 278 270 274 274 280 260 274 283 281 285 281 287 279
259 252 254 257 257 264 261 269 268 265 265 268 267 273 274 273 273 274 274 278 280 280 283 283 282 286 287
246 247 250 255 257 261 261 252 260 264 264 267 266 263 270 261 271 273 275 273 275 275 278 278 276 270 281
245 247 249 252 253 261 261 259 258 260 260 263 269 268 268 269 270 271 272 274 275 275 276 278 280 280 282
248 248 248 250 250 260 260 267 266 266 264 268 262 265 263 264 266 267 268 271 272 274 278 279 264 280 281
246 253 252 251 252 254 256 257 260 261 262 264 263 263 262 262 263 264 267 268 269 270 276 277 270 273 276
247 247 248 252 259 254 255 257 260 262 262 263 265 266 265 265 266 266 267 268 269 270 272 270 271 273 274
243 247 249 250 250 253 256 260 258 258 261 262 264 265 265 268 268 269 268 269 270 272 274 275 275 274 274
243 245 246 249 251 252 255 256 257 259 260 263 264 267 268 268 270 272 272 273 274 274 274 274 277 280 279
242 245 247 248 249 252 253 256 257 259 262 264 265 268 269 270 271 272 274 275 277 277 277 279 279 279 280
243 244 246 250 250 251 253 255 257 260 260 262 264 266 267 268 269 271 272 273 274 275 276 279 280 280 282
243 245 247 247 249 252 254 256 256 258 259 261 264 264 265 267 269 269 271 274 276 276 277 279 280 278 280
245 246 247 248 250 254 254 254 257 258 259 261 263 265 266 267 267 270 271 273 273 275 276 277 279 280 279
251 249 250 250 253 252 254 255 257 258 258 260 263 263 263 264 267 267 271 272 272 273 272 273 276 277 277